Time,TemperatureF,DewpointF,PressureIn,WindDirection,WindDirectionDegrees,WindSpeedMPH,WindSpeedGustMPH,Humidity,HourlyPrecipIn,Conditions,Clouds,dailyrainin,SolarRadiationWatts/m^2,SoftwareType,DateUTC
2013-04-21 00:00:00,32.4,27.2,29.99,ESE,115,5.0,5.0,81,0.00,,,0.03,0,Wunderground v.1.15,2013-04-21 06:00:00,
2013-04-21 00:11:00,32.5,27.3,30.00,NNW,339,5.0,10.0,81,0.00,,,0.00,0,Wunderground v.1.15,2013-04-21 06:11:00,
2013-04-21 00:20:00,32.3,26.5,29.99,WNW,303,5.0,10.0,79,0.00,,,0.00,0,Wunderground v.1.15,2013-04-21 06:20:00,
2013-04-21 00:30:00,32.4,26.3,30.00,SW,223,5.0,5.0,78,0.00,,,0.00,0,Wunderground v.1.15,2013-04-21 06:30:00,
2013-04-21 00:40:00,32.6,26.2,30.01,East,80,2.0,3.0,77,0.00,,,0.00,0,Wunderground v.1.15,2013-04-21 06:40:00,
2013-04-21 01:00:00,32.3,26.2,30.01,ESE,114,5.0,7.0,78,0.00,,,0.00,0,Wunderground v.1.15,2013-04-21 07:00:00,
2013-04-21 01:10:00,32.1,26.6,30.01,SSE,157,4.0,6.0,80,0.00,,,0.00,0,Wunderground v.1.15,2013-04-21 07:10:00,
2013-04-21 01:20:00,32.0,26.2,30.02,South,169,5.0,6.0,79,0.00,,,0.00,0,Wunderground v.1.15,2013-04-21 07:20:00,
2013-04-21 01:30:00,32.1,25.7,30.02,SSW,201,7.0,7.0,77,0.00,,,0.00,0,Wunderground v.1.15,2013-04-21 07:30:00,
2013-04-21 01:40:00,32.1,26.0,30.02,South,187,7.0,7.0,78,0.00,,,0.00,0,Wunderground v.1.15,2013-04-21 07:40:00,
2013-04-21 01:50:00,31.8,26.0,30.02,South,169,6.0,6.0,79,0.00,,,0.00,0,Wunderground v.1.15,2013-04-21 07:50:00,
2013-04-21 02:00:00,31.7,25.9,30.02,SSE,167,3.0,5.0,79,0.00,,,0.00,0,Wunderground v.1.15,2013-04-21 08:00:00,
2013-04-21 02:10:00,31.6,26.1,30.01,South,188,6.0,6.0,80,0.00,,,0.00,0,Wunderground v.1.15,2013-04-21 08:10:00,
2013-04-21 02:21:00,31.5,25.7,30.01,SSE,159,5.0,5.0,79,0.00,,,0.00,0,Wunderground v.1.15,2013-04-21 08:21:00,
2013-04-21 02:30:00,31.7,25.6,30.00,SSW,195,4.0,4.0,78,0.00,,,0.00,0,Wunderground v.1.15,2013-04-21 08:30:00,
2013-04-21 02:40:00,31.8,25.4,30.00,SE,137,4.0,6.0,77,0.00,,,0.00,0,Wunderground v.1.15,2013-04-21 08:40:00,
2013-04-21 02:50:00,31.8,25.4,30.00,SSW,203,5.0,5.0,77,0.00,,,0.00,0,Wunderground v.1.15,2013-04-21 08:50:00,
2013-04-21 03:00:00,31.7,25.3,29.99,SSE,162,6.0,10.0,77,0.00,,,0.00,0,Wunderground v.1.15,2013-04-21 09:00:00,
2013-04-21 03:10:00,31.9,24.9,29.99,SE,132,7.0,7.0,75,0.00,,,0.00,0,Wunderground v.1.15,2013-04-21 09:10:00,
2013-04-21 03:20:00,31.9,24.9,29.99,SE,146,5.0,5.0,75,0.00,,,0.00,0,Wunderground v.1.15,2013-04-21 09:20:00,
2013-04-21 03:31:00,31.8,24.8,29.99,SSE,147,5.0,5.0,75,0.00,,,0.00,0,Wunderground v.1.15,2013-04-21 09:31:00,
2013-04-21 03:40:00,31.8,24.5,29.99,East,88,5.0,11.0,74,0.00,,,0.00,0,Wunderground v.1.15,2013-04-21 09:40:00,
2013-04-21 03:50:00,31.7,24.7,29.99,East,88,5.0,5.0,75,0.00,,,0.00,0,Wunderground v.1.15,2013-04-21 09:50:00,
2013-04-21 04:00:00,31.6,24.6,29.99,SE,137,2.0,5.0,75,0.00,,,0.00,0,Wunderground v.1.15,2013-04-21 10:00:00,
2013-04-21 04:10:00,31.5,24.5,30.00,South,178,6.0,6.0,75,0.00,,,0.00,0,Wunderground v.1.15,2013-04-21 10:10:00,
2013-04-21 04:21:00,31.5,24.2,30.00,SSE,159,2.0,9.0,74,0.00,,,0.00,0,Wunderground v.1.15,2013-04-21 10:21:00,
2013-04-21 04:30:00,31.6,24.3,30.00,SSW,211,4.0,9.0,74,0.00,,,0.00,0,Wunderground v.1.15,2013-04-21 10:30:00,
2013-04-21 04:40:00,31.5,24.2,30.00,SSE,147,6.0,7.0,74,0.00,,,0.00,0,Wunderground v.1.15,2013-04-21 10:40:00,
2013-04-21 04:50:00,31.4,24.1,30.00,SSW,207,6.0,6.0,74,0.00,,,0.00,0,Wunderground v.1.15,2013-04-21 10:50:00,
2013-04-21 05:00:00,31.4,24.1,30.01,SE,126,1.0,7.0,74,0.00,,,0.00,0,Wunderground v.1.15,2013-04-21 11:00:00,
2013-04-21 05:20:00,31.1,24.4,30.01,South,188,2.0,2.0,76,0.00,,,0.00,0,Wunderground v.1.15,2013-04-21 11:20:00,
2013-04-21 05:30:00,31.0,24.0,30.02,South,178,3.0,13.0,75,0.00,,,0.00,0,Wunderground v.1.15,2013-04-21 11:30:00,
2013-04-21 05:40:00,31.1,23.8,30.02,ESE,118,8.0,8.0,74,0.00,,,0.00,0,Wunderground v.1.15,2013-04-21 11:40:00,
2013-04-21 05:50:00,31.0,23.7,30.02,SSE,167,4.0,4.0,74,0.00,,,0.00,0,Wunderground v.1.15,2013-04-21 11:50:00,
2013-04-21 06:01:00,31.1,23.5,30.02,SE,139,4.0,5.0,73,0.00,,,0.00,0,Wunderground v.1.15,2013-04-21 12:01:00,
2013-04-21 06:10:00,31.0,23.7,30.02,SSE,152,3.0,8.0,74,0.00,,,0.00,0,Wunderground v.1.15,2013-04-21 12:10:00,
2013-04-21 06:20:00,31.0,23.4,30.02,SE,128,6.0,8.0,73,0.00,,,0.00,0,Wunderground v.1.15,2013-04-21 12:20:00,
2013-04-21 06:30:00,30.9,23.6,30.03,SE,131,5.0,6.0,74,0.00,,,0.00,5,Wunderground v.1.15,2013-04-21 12:30:00,
2013-04-21 06:40:00,31.0,23.0,30.03,SE,124,7.0,7.0,72,0.00,,,0.00,11,Wunderground v.1.15,2013-04-21 12:40:00,
2013-04-21 06:50:00,30.8,22.8,30.02,SE,145,7.0,7.0,72,0.00,,,0.00,18,Wunderground v.1.15,2013-04-21 12:50:00,
2013-04-21 07:00:00,30.8,22.8,30.02,SSE,161,4.0,4.0,72,0.00,,,0.00,39,Wunderground v.1.15,2013-04-21 13:00:00,
2013-04-21 07:10:00,31.2,22.5,30.03,SE,124,6.0,7.0,70,0.00,,,0.00,37,Wunderground v.1.15,2013-04-21 13:10:00,
2013-04-21 07:20:00,31.2,22.9,30.03,SE,140,6.0,9.0,71,0.00,,,0.00,51,Wunderground v.1.15,2013-04-21 13:20:00,
2013-04-21 07:30:00,31.4,23.1,30.03,South,179,7.0,11.0,71,0.00,,,0.00,70,Wunderground v.1.15,2013-04-21 13:30:00,
2013-04-21 07:50:00,32.2,23.5,30.05,SSE,165,6.0,6.0,70,0.00,,,0.00,135,Wunderground v.1.15,2013-04-21 13:50:00,
2013-04-21 08:00:00,32.1,23.8,30.05,SE,137,6.0,8.0,71,0.00,,,0.00,128,Wunderground v.1.15,2013-04-21 14:00:00,
2013-04-21 08:10:00,31.7,23.7,30.05,SSW,197,6.0,7.0,72,0.00,,,0.00,118,Wunderground v.1.15,2013-04-21 14:10:00,
2013-04-21 08:20:00,31.8,23.1,30.04,SSE,151,8.0,8.0,70,0.00,,,0.00,149,Wunderground v.1.15,2013-04-21 14:20:00,
2013-04-21 08:31:00,32.4,23.4,30.05,SE,141,5.0,9.0,69,0.00,,,0.00,171,Wunderground v.1.15,2013-04-21 14:31:00,
2013-04-21 08:40:00,32.8,22.7,30.05,SSE,161,7.0,10.0,66,0.00,,,0.00,190,Wunderground v.1.15,2013-04-21 14:40:00,
2013-04-21 08:50:00,32.7,22.9,30.05,SE,136,9.0,9.0,67,0.00,,,0.00,213,Wunderground v.1.15,2013-04-21 14:50:00,
2013-04-21 09:00:00,33.3,23.2,30.05,South,174,5.0,6.0,66,0.00,,,0.00,241,Wunderground v.1.15,2013-04-21 15:00:00,
2013-04-21 09:10:00,33.6,23.1,30.05,South,169,7.0,7.0,65,0.00,,,0.00,257,Wunderground v.1.15,2013-04-21 15:10:00,
2013-04-21 09:20:00,33.7,23.2,30.06,South,175,8.0,9.0,65,0.00,,,0.00,262,Wunderground v.1.15,2013-04-21 15:20:00,
2013-04-21 09:30:00,34.1,23.2,30.06,South,172,8.0,8.0,64,0.00,,,0.00,297,Wunderground v.1.15,2013-04-21 15:30:00,
2013-04-21 09:40:00,34.4,22.7,30.06,SE,138,6.0,6.0,62,0.00,,,0.00,306,Wunderground v.1.15,2013-04-21 15:40:00,
2013-04-21 09:50:00,34.3,23.0,30.05,SSE,148,9.0,9.0,63,0.00,,,0.00,367,Wunderground v.1.15,2013-04-21 15:50:00,
2013-04-21 10:00:00,35.1,23.4,30.05,SE,142,8.0,8.0,62,0.00,,,0.00,362,Wunderground v.1.15,2013-04-21 16:00:00,
2013-04-21 10:20:00,35.1,22.6,30.05,SE,145,6.0,6.0,60,0.00,,,0.00,290,Wunderground v.1.15,2013-04-21 16:20:00,
2013-04-21 10:30:00,35.1,22.6,30.05,SE,145,8.0,8.0,60,0.00,,,0.00,288,Wunderground v.1.15,2013-04-21 16:30:00,
2013-04-21 10:40:00,35.4,22.9,30.05,ESE,111,7.0,9.0,60,0.00,,,0.00,397,Wunderground v.1.15,2013-04-21 16:40:00,
2013-04-21 10:50:00,35.7,21.9,30.05,NE,38,10.0,10.0,57,0.00,,,0.00,439,Wunderground v.1.15,2013-04-21 16:50:00,
2013-04-21 11:01:00,37.4,23.1,30.06,ENE,78,9.0,9.0,56,0.00,,,0.00,942,Wunderground v.1.15,2013-04-21 17:01:00,
2013-04-21 11:10:00,37.7,22.5,30.06,SSE,165,8.0,8.0,54,0.00,,,0.00,830,Wunderground v.1.15,2013-04-21 17:10:00,
2013-04-21 11:20:00,38.9,21.8,30.06,West,263,6.0,15.0,50,0.00,,,0.00,603,Wunderground v.1.15,2013-04-21 17:20:00,
2013-04-21 11:40:00,37.9,21.4,30.06,NE,49,8.0,8.0,51,0.00,,,0.00,533,Wunderground v.1.15,2013-04-21 17:40:00,
2013-04-21 11:50:00,39.1,22.5,30.05,NNW,327,7.0,12.0,51,0.00,,,0.00,761,Wunderground v.1.15,2013-04-21 17:50:00,
2013-04-21 12:10:00,41.9,25.1,30.04,South,173,5.0,10.0,51,0.00,,,0.00,1072,Wunderground v.1.15,2013-04-21 18:10:00,
2013-04-21 12:20:00,41.7,21.9,30.04,SSE,163,7.0,7.0,45,0.00,,,0.00,1034,Wunderground v.1.15,2013-04-21 18:20:00,
2013-04-21 12:30:00,42.3,22.4,30.04,SW,219,7.0,7.0,45,0.00,,,0.00,1013,Wunderground v.1.15,2013-04-21 18:30:00,
2013-04-21 12:40:00,42.4,22.0,30.03,NW,322,7.0,7.0,44,0.00,,,0.00,904,Wunderground v.1.15,2013-04-21 18:40:00,
2013-04-21 12:50:00,41.3,20.5,30.03,NE,49,9.0,9.0,43,0.00,,,0.00,990,Wunderground v.1.15,2013-04-21 18:50:00,
2013-04-21 13:00:00,40.4,20.7,30.03,ESE,119,9.0,9.0,45,0.00,,,0.00,1021,Wunderground v.1.15,2013-04-21 19:00:00,
2013-04-21 13:10:00,41.6,22.3,30.02,NW,314,10.0,10.0,46,0.00,,,0.00,1095,Wunderground v.1.15,2013-04-21 19:10:00,
2013-04-21 13:20:00,41.9,23.1,30.02,South,191,8.0,8.0,47,0.00,,,0.00,1011,Wunderground v.1.15,2013-04-21 19:20:00,
2013-04-21 13:30:00,41.4,22.7,30.02,NNW,327,4.0,23.0,47,0.00,,,0.00,933,Wunderground v.1.15,2013-04-21 19:30:00,
2013-04-21 13:40:00,41.6,22.8,30.01,NNW,344,7.0,8.0,47,0.00,,,0.00,1071,Wunderground v.1.15,2013-04-21 19:40:00,
2013-04-21 13:50:00,42.1,22.3,30.02,SSW,212,5.0,10.0,45,0.00,,,0.00,1150,Wunderground v.1.15,2013-04-21 19:50:00,
2013-04-21 14:00:00,42.0,21.1,30.03,SSE,160,12.0,12.0,43,0.00,,,0.00,1155,Wunderground v.1.15,2013-04-21 20:00:00,
2013-04-21 14:10:00,42.8,21.3,30.01,NW,306,6.0,13.0,42,0.00,,,0.00,1171,Wunderground v.1.15,2013-04-21 20:10:00,
2013-04-21 14:20:00,42.2,20.7,30.02,SSW,194,6.0,6.0,42,0.00,,,0.00,501,Wunderground v.1.15,2013-04-21 20:20:00,
2013-04-21 14:30:00,42.0,20.5,30.01,WSW,252,8.0,12.0,42,0.00,,,0.00,573,Wunderground v.1.15,2013-04-21 20:30:00,
2013-04-21 14:40:00,42.2,20.2,30.02,SSE,152,9.0,9.0,41,0.00,,,0.00,422,Wunderground v.1.15,2013-04-21 20:40:00,
2013-04-21 14:50:00,41.5,21.2,30.02,East,80,11.0,11.0,44,0.00,,,0.00,457,Wunderground v.1.15,2013-04-21 20:50:00,
2013-04-21 15:01:00,42.2,21.3,30.02,West,276,8.0,8.0,43,0.00,,,0.00,438,Wunderground v.1.15,2013-04-21 21:01:00,
2013-04-21 15:10:00,42.4,20.3,30.01,SSE,148,7.0,14.0,41,0.00,,,0.00,415,Wunderground v.1.15,2013-04-21 21:10:00,
2013-04-21 15:20:00,41.7,21.9,30.01,SSE,161,10.0,16.0,45,0.00,,,0.00,573,Wunderground v.1.15,2013-04-21 21:20:00,
2013-04-21 15:30:00,42.8,22.4,30.02,WNW,284,9.0,9.0,44,0.00,,,0.00,1025,Wunderground v.1.15,2013-04-21 21:30:00,
2013-04-21 15:40:00,43.1,21.5,30.02,SE,127,8.0,8.0,42,0.00,,,0.00,1060,Wunderground v.1.15,2013-04-21 21:40:00,
2013-04-21 15:50:00,42.0,22.2,30.01,NW,309,7.0,7.0,45,0.00,,,0.00,689,Wunderground v.1.15,2013-04-21 21:50:00,
2013-04-21 16:00:00,42.3,21.4,30.03,East,82,8.0,15.0,43,0.00,,,0.00,617,Wunderground v.1.15,2013-04-21 22:00:00,
2013-04-21 16:10:00,41.5,22.7,30.03,South,190,6.0,6.0,47,0.00,,,0.00,352,Wunderground v.1.15,2013-04-21 22:10:00,
2013-04-21 16:20:00,37.3,23.9,30.02,South,181,8.0,8.0,58,0.00,,,0.00,311,Wunderground v.1.15,2013-04-21 22:20:00,
2013-04-21 16:30:00,37.4,24.8,30.02,SW,229,8.0,8.0,60,0.00,,,0.00,352,Wunderground v.1.15,2013-04-21 22:30:00,
2013-04-21 16:50:00,38.2,23.4,30.00,ESE,103,6.0,6.0,55,0.00,,,0.00,292,Wunderground v.1.15,2013-04-21 22:50:00,
2013-04-21 17:00:00,39.4,23.2,29.99,SW,216,4.0,7.0,52,0.00,,,0.00,239,Wunderground v.1.15,2013-04-21 23:00:00,
2013-04-21 17:10:00,40.2,23.5,29.99,WNW,294,8.0,8.0,51,0.00,,,0.00,504,Wunderground v.1.15,2013-04-21 23:10:00,
2013-04-21 17:20:00,41.7,23.9,29.98,SSW,210,6.0,6.0,49,0.00,,,0.00,448,Wunderground v.1.15,2013-04-21 23:20:00,
2013-04-21 17:30:00,42.9,23.0,29.97,NE,55,4.0,8.0,45,0.00,,,0.00,410,Wunderground v.1.15,2013-04-21 23:30:00,
2013-04-21 17:40:00,42.1,21.2,29.97,SSW,203,8.0,8.0,43,0.00,,,0.00,373,Wunderground v.1.15,2013-04-21 23:40:00,
2013-04-21 17:50:00,42.3,20.8,29.97,SE,135,7.0,7.0,42,0.00,,,0.00,334,Wunderground v.1.15,2013-04-21 23:50:00,
2013-04-21 18:00:00,41.7,21.4,29.97,SW,221,7.0,7.0,44,0.00,,,0.00,299,Wunderground v.1.15,2013-04-22 00:00:00,
2013-04-21 18:10:00,41.3,20.5,29.97,SW,215,6.0,8.0,43,0.00,,,0.00,258,Wunderground v.1.15,2013-04-22 00:10:00,
2013-04-21 18:20:00,41.0,20.2,29.97,NNW,334,8.0,8.0,43,0.00,,,0.00,120,Wunderground v.1.15,2013-04-22 00:20:00,
2013-04-21 18:30:00,40.2,18.9,29.96,East,98,6.0,8.0,42,0.00,,,0.00,56,Wunderground v.1.15,2013-04-22 00:30:00,
2013-04-21 18:40:00,39.8,18.0,29.97,SE,135,7.0,7.0,41,0.00,,,0.00,51,Wunderground v.1.15,2013-04-22 00:40:00,
2013-04-21 18:50:00,39.5,18.3,29.97,South,175,5.0,6.0,42,0.00,,,0.00,40,Wunderground v.1.15,2013-04-22 00:50:00,
2013-04-21 19:00:00,39.1,19.0,29.97,South,189,7.0,7.0,44,0.00,,,0.00,28,Wunderground v.1.15,2013-04-22 01:00:00,
2013-04-21 19:10:00,38.9,17.2,29.97,NE,43,6.0,6.0,41,0.00,,,0.00,21,Wunderground v.1.15,2013-04-22 01:10:00,
2013-04-21 19:20:00,38.8,18.2,29.97,SE,142,4.0,12.0,43,0.00,,,0.00,16,Wunderground v.1.15,2013-04-22 01:20:00,
2013-04-21 19:31:00,38.5,17.9,29.97,East,90,5.0,9.0,43,0.00,,,0.00,9,Wunderground v.1.15,2013-04-22 01:31:00,
2013-04-21 19:40:00,38.3,18.3,29.97,ESE,108,5.0,9.0,44,0.00,,,0.00,5,Wunderground v.1.15,2013-04-22 01:40:00,
2013-04-21 19:50:00,38.4,18.4,29.98,SSE,159,8.0,8.0,44,0.00,,,0.00,0,Wunderground v.1.15,2013-04-22 01:50:00,
2013-04-21 20:00:00,38.9,19.9,29.98,North,351,7.0,7.0,46,0.00,,,0.00,0,Wunderground v.1.15,2013-04-22 02:00:00,
2013-04-21 20:10:00,39.1,19.5,29.98,SE,144,5.0,5.0,45,0.00,,,0.00,0,Wunderground v.1.15,2013-04-22 02:10:00,
2013-04-21 20:21:00,38.8,21.3,29.98,WNW,283,5.0,5.0,49,0.00,,,0.00,0,Wunderground v.1.15,2013-04-22 02:21:00,
2013-04-21 20:30:00,38.6,20.6,29.97,SW,232,5.0,5.0,48,0.00,,,0.00,0,Wunderground v.1.15,2013-04-22 02:30:00,
2013-04-21 20:40:00,38.5,21.0,29.97,SE,146,2.0,11.0,49,0.00,,,0.00,0,Wunderground v.1.15,2013-04-22 02:40:00,
2013-04-21 20:50:00,38.3,20.8,29.97,SSW,209,5.0,5.0,49,0.00,,,0.00,0,Wunderground v.1.15,2013-04-22 02:50:00,
2013-04-21 21:00:00,38.3,20.8,29.97,NW,320,3.0,3.0,49,0.00,,,0.00,0,Wunderground v.1.15,2013-04-22 03:00:00,
2013-04-21 21:11:00,38.4,20.9,29.97,East,90,3.0,5.0,49,0.00,,,0.00,0,Wunderground v.1.15,2013-04-22 03:11:00,
2013-04-21 21:20:00,38.1,20.6,29.97,SW,234,5.0,6.0,49,0.00,,,0.00,0,Wunderground v.1.15,2013-04-22 03:20:00,
2013-04-21 21:31:00,37.9,20.9,29.98,West,281,5.0,5.0,50,0.00,,,0.00,0,Wunderground v.1.15,2013-04-22 03:31:00,
2013-04-21 21:40:00,37.7,22.1,29.97,NNW,329,5.0,5.0,53,0.00,,,0.00,0,Wunderground v.1.15,2013-04-22 03:40:00,
2013-04-21 21:50:00,37.4,21.8,29.98,West,266,6.0,6.0,53,0.00,,,0.00,0,Wunderground v.1.15,2013-04-22 03:50:00,
2013-04-21 22:00:00,36.8,23.4,29.99,WNW,302,7.0,28.0,58,0.00,,,0.00,0,Wunderground v.1.15,2013-04-22 04:00:00,
2013-04-21 22:10:00,35.9,24.1,29.99,South,173,5.0,5.0,62,0.00,,,0.00,0,Wunderground v.1.15,2013-04-22 04:10:00,
2013-04-21 22:20:00,34.9,25.4,29.96,South,189,7.0,7.0,68,0.00,,,0.00,0,Wunderground v.1.15,2013-04-22 04:20:00,
2013-04-21 22:30:00,34.8,24.6,29.97,WSW,238,9.0,12.0,66,0.00,,,0.00,0,Wunderground v.1.15,2013-04-22 04:30:00,
2013-04-21 22:41:00,35.2,25.0,29.96,SSE,148,8.0,12.0,66,0.00,,,0.00,0,Wunderground v.1.15,2013-04-22 04:41:00,
2013-04-21 22:50:00,35.2,25.7,29.97,SSE,161,8.0,12.0,68,0.00,,,0.00,0,Wunderground v.1.15,2013-04-22 04:50:00,
2013-04-21 23:00:00,34.3,26.5,29.96,South,178,7.0,8.0,73,0.00,,,0.00,0,Wunderground v.1.15,2013-04-22 05:00:00,
2013-04-21 23:11:00,34.4,25.6,29.94,SSW,194,6.0,13.0,70,0.00,,,0.00,0,Wunderground v.1.15,2013-04-22 05:11:00,
2013-04-21 23:20:00,34.8,25.0,29.94,SSW,213,8.0,13.0,67,0.00,,,0.00,0,Wunderground v.1.15,2013-04-22 05:20:00,
2013-04-21 23:30:00,35.0,25.1,29.93,SSW,197,6.0,6.0,67,0.00,,,0.00,0,Wunderground v.1.15,2013-04-22 05:30:00,
2013-04-21 23:40:00,35.1,25.6,29.94,South,182,5.0,13.0,68,0.00,,,0.00,0,Wunderground v.1.15,2013-04-22 05:40:00,
2013-04-21 23:50:00,34.7,25.9,29.94,South,175,5.0,5.0,70,0.00,,,0.00,0,Wunderground v.1.15,2013-04-22 05:50:00,